Tillbaka till svenska Fidonet
English   Information   Debug  
FILM   0/18
FNEWS_PUBLISH   4983
FN_SYSOP   42232
FN_SYSOP_OLD1   71952
FTP_FIDO   0/2
FTSC_PUBLIC   0/13976
FUNNY   0/4886
GENEALOGY.EUR   0/71
GET_INFO   105
GOLDED   0/408
HAM   4342/16717
HOLYSMOKE   0/6791
HOT_SITES   0/1
HTMLEDIT   0/71
HUB203   466
HUB_100   264
HUB_400   39
HUMOR   0/29
IC   0/2851
INTERNET   0/424
INTERUSER   0/3
IP_CONNECT   719
JAMNNTPD   0/233
JAMTLAND   0/47
KATTY_KORNER   0/41
LAN   0/16
LINUX-USER   0/19
LINUXHELP   0/1155
LINUX   0/22386
LINUX_BBS   0/957
mail   18.68
mail_fore_ok   249
MENSA   0/341
MODERATOR   0/102
MONTE   379/992
MOSCOW_OKLAHOMA   0/1245
MUFFIN   0/783
MUSIC   0/321
N203_STAT   938
N203_SYSCHAT   313
NET203   321
NET204   69
NET_DEV   0/10
NORD.ADMIN   0/101
NORD.CHAT   0/2572
NORD.FIDONET   189
NORD.HARDWARE   0/28
NORD.KULTUR   0/114
NORD.PROG   0/32
NORD.SOFTWARE   0/88
NORD.TEKNIK   0/58
NORD   0/453
OCCULT_CHAT   0/93
OS2BBS   0/787
OS2DOSBBS   0/580
OS2HW   0/42
OS2INET   0/37
OS2LAN   0/134
OS2PROG   0/36
OS2REXX   0/113
OS2USER-L   207
OS2   0/4831
OSDEBATE   0/18996
PASCAL   0/490
PERL   0/457
PHP   0/45
POINTS   0/405
POLITICS   0/29554
POL_INC   3954/14731
PSION   103
R20_ADMIN   1133
R20_AMATORRADIO   0/2
R20_BEST_OF_FIDONET   16
R20_CHAT   0/897
R20_DEPP   0/3
R20_DEV   400
R20_ECHO2   1890
R20_ECHOPRES   0/35
R20_ESTAT   0/719
R20_FIDONETPROG...
...RAM.MYPOINT
  0/2
R20_FIDONETPROGRAM   0/22
R20_FIDONET   0/248
R20_FILEFIND   0/24
R20_FILEFOUND   0/22
R20_HIFI   0/3
R20_INFO2   3783
R20_INTERNET   0/12940
R20_INTRESSE   0/60
R20_INTR_KOM   0/99
R20_KANDIDAT.CHAT   42
R20_KANDIDAT   28
R20_KOM_DEV   112
R20_KONTROLL   0/13360
R20_KORSET   0/18
R20_LOKALTRAFIK   0/24
R20_MODERATOR   0/1852
R20_NC   76
R20_NET200   245
R20_NETWORK.OTH...
...ERNETS
  0/13
R20_OPERATIVSYS...
...TEM.LINUX
  0/44
R20_PROGRAMVAROR   0/1
R20_REC2NEC   534
R20_SFOSM   0/341
R20_SF   0/108
R20_SPRAK.ENGLISH   0/1
R20_SQUISH   107
R20_TEST   2
R20_WORST_OF_FIDONET   20
RAR   0/9
RA_MULTI   106
RA_UTIL   0/162
REGCON.EUR   0/2069
REGCON   0/13
SCIENCE   0/1206
SF   0/239
SHAREWARE_SUPPORT   0/5146
SHAREWRE   0/14
SIMPSONS   0/169
STATS_OLD1   1110/2539.065
STATS_OLD2   0/2530
STATS_OLD3   0/2395.095
STATS_OLD4   0/1692.25
SURVIVOR   0/495
SYSOPS_CORNER   0/3
SYSOP   0/84
TAGLINES   0/112
TEAMOS2   0/4530
TECH   0/2617
TEST.444   0/105
TRAPDOOR   0/19
TREK   0/755
TUB   0/290
UFO   0/40
UNIX   168/1316
USA_EURLINK   0/102
USR_MODEMS   0/1
VATICAN   0/2740
VIETNAM_VETS   0/14
VIRUS   0/378
VIRUS_INFO   0/201
VISUAL_BASIC   0/473
WHITEHOUSE   0/5187
WIN2000   0/101
WIN32   0/30
WIN95   0/4291
WIN95_OLD1   0/70272
WINDOWS   0/1517
WWB_SYSOP   0/419
WWB_TECH   0/810
ZCC-PUBLIC   0/1
ZEC   4

 
4DOS   0/134
ABORTION   0/7
ALASKA_CHAT   0/506
ALLFIX_FILE   0/1313
ALLFIX_FILE_OLD1   0/7997
ALT_DOS   0/152
AMATEUR_RADIO   0/1039
AMIGASALE   0/14
AMIGA   0/331
AMIGA_INT   0/1
AMIGA_PROG   0/20
AMIGA_SYSOP   0/26
ANIME   0/15
ARGUS   0/924
ASCII_ART   0/340
ASIAN_LINK   0/651
ASTRONOMY   0/417
AUDIO   0/92
AUTOMOBILE_RACING   0/105
BABYLON5   0/17862
BAG   135
BATPOWER   0/361
BBBS.ENGLISH   0/382
BBSLAW   0/109
BBS_ADS   0/5290
BBS_INTERNET   0/507
BIBLE   0/3563
BINKD   0/1119
BINKLEY   0/215
BLUEWAVE   0/2173
CABLE_MODEMS   0/25
CBM   0/46
CDRECORD   0/66
CDROM   0/20
CLASSIC_COMPUTER   0/378
COMICS   0/15
CONSPRCY   0/899
COOKING   42022
COOKING_OLD1   0/24719
COOKING_OLD2   31825/40862
COOKING_OLD3   0/37489
COOKING_OLD4   0/35496
COOKING_OLD5   9370
C_ECHO   0/189
C_PLUSPLUS   0/31
DIRTY_DOZEN   0/201
DOORGAMES   0/2333
DOS_INTERNET   0/196
duplikat   6102
ECHOLIST   0/18295
EC_SUPPORT   0/318
ELECTRONICS   0/359
ELEKTRONIK.GER   1534
ENET.LINGUISTIC   0/13
ENET.POLITICS   0/4
ENET.SOFT   0/11701
ENET.SYSOP   34335
ENET.TALKS   0/32
ENGLISH_TUTOR   0/2000
EVOLUTION   0/1335
FDECHO   0/217
FDN_ANNOUNCE   0/7068
FIDONEWS   25122
FIDONEWS_OLD1   0/49742
FIDONEWS_OLD2   0/35949
FIDONEWS_OLD3   0/30874
FIDONEWS_OLD4   0/37224
FIDO_SYSOP   12973
FIDO_UTIL   0/180
FILEFIND   0/209
FILEGATE   0/212
Möte HAM, 16717 texter
 lista första sista föregående nästa
Text 5355, 993 rader
Skriven 2012-06-14 23:01:22 av Amsat List (1:323/120.0)
Ärende: [keps] orb12166.amsa
============================
[keps] orb12166.amsa

Sender: keps-bounces@amsat.org
Return-Path: <keps-bounces@amsat.org>
X-Rcpt: craig.healy@chowda.com
X-UIDL: 1339728481.256

SB KEPS @ AMSAT  $ORB12166.O
Orbital Elements  12166.OSCAR

HR AMSAT ORBITAL ELEMENTS FOR OSCAR SATELLITES
FROM WA5QGD FORT WORTH,TX June 14, 2012
Send SUBSCRIBE KEPS/UNSUBSCRIBE KEPS to majordomo@amsat.org only
BID: ORB12166.O
TO ALL RADIO AMATEURS BT

Satellite: AO-07
Catalog number: 07530
Epoch time:      12165.55407552
Element set:     404
Inclination:      101.4023 deg
RA of node:       162.9048 deg
Eccentricity:    0.0011736
Arg of perigee:   291.1406 deg
Mean anomaly:     068.8402 deg
Mean motion:   12.53589751 rev/day
Decay rate:       -2.7e-07 rev/day^2
Epoch rev:           71959
Checksum:              286

Satellite: FO-29
Catalog number: 24278
Epoch time:      12165.85803408
Element set:    0875
Inclination:      098.5860 deg
RA of node:       266.9475 deg
Eccentricity:    0.0351026
Arg of perigee:   038.0639 deg
Mean anomaly:     324.4750 deg
Mean motion:   13.52984571 rev/day
Decay rate:        5.6e-07 rev/day^2
Epoch rev:           78150
Checksum:              339

Satellite: SO-33
Catalog number: 25509
Epoch time:      12165.91561362
Element set:    0255
Inclination:      031.4338 deg
RA of node:       352.2096 deg
Eccentricity:    0.0352460
Arg of perigee:   174.7493 deg
Mean anomaly:     185.6965 deg
Mean motion:   14.28770724 rev/day
Decay rate:       4.80e-06 rev/day^2
Epoch rev:           71218
Checksum:              314

Satellite: RS-22
Catalog number: 27939
Epoch time:      12166.53679821
Element set:     446
Inclination:      097.8133 deg
RA of node:       007.4892 deg
Eccentricity:    0.0012310
Arg of perigee:   274.7905 deg
Mean anomaly:     085.1912 deg
Mean motion:   14.64040362 rev/day
Decay rate:       6.31e-06 rev/day^2
Epoch rev:           46549
Checksum:              311

Satellite: VO-52
Catalog number: 28650
Epoch time:      12165.61388063
Element set:     126
Inclination:      097.5971 deg
RA of node:       196.7431 deg
Eccentricity:    0.0027489
Arg of perigee:   054.4587 deg
Mean anomaly:     305.9175 deg
Mean motion:   14.82980063 rev/day
Decay rate:      1.564e-05 rev/day^2
Epoch rev:           38444
Checksum:              338

Satellite: HO-68
Catalog number: 36122
Epoch time:      12166.40321011
Element set:     552
Inclination:      100.3613 deg
RA of node:       225.8063 deg
Eccentricity:    0.0007813
Arg of perigee:   114.2244 deg
Mean anomaly:     245.9684 deg
Mean motion:   13.16296331 rev/day
Decay rate:       -4.4e-07 rev/day^2
Epoch rev:           12002
Checksum:              243

/EX
SB KEPS @ AMSAT  $ORB12166.D
Orbital Elements  12166.MICROS

HR AMSAT ORBITAL ELEMENTS FOR THE MICROSATS
FROM WA5QGD FORT WORTH,TX June 14, 2012
Send SUBSCRIBE KEPS/UNSUBSCRIBE KEPS to majordomo@amsat.org only
BID: ORB12166.D
TO ALL RADIO AMATEURS BT

Satellite: UO-11
Catalog number: 14781
Epoch time:      12165.67389998
Element set:    0910
Inclination:      097.9533 deg
RA of node:       225.2254 deg
Eccentricity:    0.0009996
Arg of perigee:   049.3066 deg
Mean anomaly:     310.9005 deg
Mean motion:   14.80462387 rev/day
Decay rate:       8.10e-06 rev/day^2
Epoch rev:           51941
Checksum:              326

Satellite: AO-16
Catalog number: 20439
Epoch time:      12165.87344088
Element set:    0493
Inclination:      098.4306 deg
RA of node:       109.3407 deg
Eccentricity:    0.0010899
Arg of perigee:   164.1243 deg
Mean anomaly:     196.0283 deg
Mean motion:   14.32058009 rev/day
Decay rate:       1.45e-06 rev/day^2
Epoch rev:           16952
Checksum:              304

Satellite: LO-19
Catalog number: 20442
Epoch time:      12165.89694452
Element set:    0419
Inclination:      098.3943 deg
RA of node:       112.3812 deg
Eccentricity:    0.0012301
Arg of perigee:   156.6246 deg
Mean anomaly:     203.5498 deg
Mean motion:   14.32276447 rev/day
Decay rate:       1.31e-06 rev/day^2
Epoch rev:           16971
Checksum:              299

Satellite: AO-27
Catalog number: 22825
Epoch time:      12166.44606042
Element set:     126
Inclination:      098.5738 deg
RA of node:       109.3038 deg
Eccentricity:    0.0007575
Arg of perigee:   290.4079 deg
Mean anomaly:     069.6285 deg
Mean motion:   14.29464232 rev/day
Decay rate:        1.7e-07 rev/day^2
Epoch rev:           97608
Checksum:              320

Satellite: IO-26
Catalog number: 22826
Epoch time:      12166.51744674
Element set:     876
Inclination:      098.5696 deg
RA of node:       109.7445 deg
Eccentricity:    0.0008191
Arg of perigee:   285.4039 deg
Mean anomaly:     074.6235 deg
Mean motion:   14.29739126 rev/day
Decay rate:       1.43e-06 rev/day^2
Epoch rev:           97622
Checksum:              341

Satellite: GO-32
Catalog number: 25397
Epoch time:      12166.30438691
Element set:     799
Inclination:      098.3620 deg
RA of node:       145.1553 deg
Eccentricity:    0.0000625
Arg of perigee:   347.7880 deg
Mean anomaly:     012.3294 deg
Mean motion:   14.23279069 rev/day
Decay rate:        7.7e-07 rev/day^2
Epoch rev:           72361
Checksum:              316

Satellite: NO-44
Catalog number: 26931
Epoch time:      12165.82334906
Element set:    0064
Inclination:      067.0517 deg
RA of node:       129.0106 deg
Eccentricity:    0.0007665
Arg of perigee:   263.3722 deg
Mean anomaly:     096.6511 deg
Mean motion:   14.29805274 rev/day
Decay rate:       4.48e-06 rev/day^2
Epoch rev:           55876
Checksum:              310

